NOAA 16 DEB, 42335

Orbit data source: Space-Track

NOAA 16 DEB, 42335 is space debris in SSO originally from a launch on Thu, 21 Sep 2000 UTC launched from the Air Force Western Test Range (AFWTR). Debris objects in space refer to the collection of defunct objects orbiting the Earth. Examples of debris include non-operational satellites, rocket bodies, and fragments generated from explosions, collisions, or faulty payload assembly.

Loading next visibility...
Identifier
42335, 2000-055QB
Orbit
SSO
Country
Flag of USUS
Related business
Manufacturer
Unknown
Mission
Spacecraft
Bus & Motor
Unknown
Mass
Unknown
Launch date (UTC)
2000-09-21 (25 years ago)
Launch vehicle
Unknown
Launch site
Air Force Western Test Range (AFWTR)
Object type
Payload
Rocket body
Debris
Shape & HBR
Unknown shape, 0.1 m
Radar Cross Section
Small (<0.1 m²)

Expand to show TLE details & history
Last TLE update: 22 hours ago

TLE from 22 hours ago
0 NOAA 16 DEB
1 42335U 00055QB  25347.87057256  .00005625  00000-0  20075-2 0  9992
2 42335  98.5722  43.1864 0023508  25.0242 335.2077 14.34384728506621
Epoch: 2025-12-13T20:53Z
TLE epoch observation values (Epoch: 2025-12-13T20:53:37.469Z)
Latitude
-0°
Longitude
6.98864°
Altitude
764.784 km
Speed
7.48 km/s
True Right ascension
02h 52m 44s
True Declination
0° 00' 00"
Sunlit
Object was in full shadow at epoch
Visualization orbit readout
Latitude
Unknown
Longitude
Unknown
Altitude
Unknown
Speed
Unknown
Apparent Right ascension
Unknown
Apparent Declination
Unknown
Sunlit
N/A
Visualization observer readout
Local Sidereal Time
17:00:53
Azimuth
Unknown
Elevation
Unknown
Doppler factor
Unknown
Orbital elements
Apogee altitude
791.058 km
Perigee altitude
757.431 km
Semi-major axis
7,152.382 km
Eccentricity
0.00235
Inclination
98.5722°
RAAN
43.1864°
Arg. of periapsis
25.0242°
True anomaly
335.09444°
Mean anomaly
335.2077°
Eccentric anomaly
335.1511°
Mean motion
3.58812 °/min
Orbital period
100.33 mins
BSTAR
0.0020075
Loading maneuver chart data...
Computing Atmospheric mass density...
Loading historical data...
Loading historical data...
Loading historical data...
Loading historical data...
Loading historical data...
Loading historical data...
Loading historical data...

Documentation

Showing up to 5 results
|